Location: Broekland
(52.3610°N, 6.2005°E)
Time: 15:10:22
(UTC+00:00)

ARIANE 6 FM1 Upper Stage - Visible Passes

Search period start: 17 July 2025 00:00
Search period end: 27 July 2025 00:00
Orbit: 529 x 612 km, 62.0° (Epoch: 16 July)

Date Brightness Start Highest point End Pass type
(mag) Time Alt. Az. Time Alt. Az. Time Alt. Az.
17 Jul 4.7 02:11:44 10° SSE 02:14:28 18° ESE 02:17:12 10° ENE visible
18 Jul 4.2 02:12:33 10° S 02:15:51 25° SE 02:19:10 10° ENE visible
19 Jul 3.6 02:13:51 11° SSW 02:17:16 35° SE 02:20:56 10° ENE visible
20 Jul 3.1 02:15:22 13° SSW 02:18:43 49° SE 02:22:36 10° ENE visible
21 Jul 4.9 00:40:44 11° SE 00:41:50 12° ESE 00:43:18 10° E visible
21 Jul 2.6 02:16:50 14° SW 02:20:13 70° SE 02:24:13 10° NE visible
22 Jul 4.5 00:42:09 16° SE 00:43:09 17° ESE 00:45:46 10° ENE visible
22 Jul 2.5 02:18:15 13° SW 02:21:45 86° NW 02:25:47 10° NE visible
23 Jul 4.0 00:43:32 21° SE 00:44:31 24° ESE 00:47:44 10° ENE visible
23 Jul 2.8 02:19:38 12° WSW 02:23:19 64° NW 02:27:19 10° NE visible
24 Jul 3.5 00:44:52 28° SSE 00:45:54 33° SE 00:49:31 10° ENE visible
24 Jul 3.3 02:21:02 10° WSW 02:24:55 49° NNW 02:28:50 10° NE visible
25 Jul 3.0 00:46:10 35° S 00:47:20 46° SE 00:51:11 10° ENE visible
25 Jul 3.7 02:22:47 10° W 02:26:33 39° NNW 02:30:21 10° NE visible
25 Jul 5.0 23:11:20 10° ESE 23:11:20 10° ESE 23:11:33 10° E visible
26 Jul 2.5 00:47:25 37° SSW 00:48:49 66° SE 00:52:47 10° NE visible
26 Jul 4.0 02:24:34 10° W 02:28:12 32° NNW 02:31:51 10° NE visible
26 Jul 4.6 23:12:32 15° ESE 23:12:32 15° ESE 23:14:13 10° E visible
